Stations météo

Publicité
Auch, France (7622): Température de l'air & dewpoint: 18.05.2017 11:00:00 - 24.05.2017 11:00:00 (CEST)Auch, France (7622): Température de l'air 5cm: 18.05.2017 11:00:00 - 24.05.2017 11:00:00 (CEST)Auch, France (7622): Température de l'air -20cm & Température de l'air -100cm: 18.05.2017 11:00:00 - 24.05.2017 11:00:00 (CEST)Auch, France (7622): Vitesse du vent & gusts: 18.05.2017 11:00:00 - 24.05.2017 11:00:00 (CEST)Auch, France (7622): Direction du vent: 18.05.2017 11:00:00 - 24.05.2017 11:00:00 (CEST)Auch, France (7622): reduced air pressure: 18.05.2017 11:00:00 - 24.05.2017 11:00:00 (CEST)Auch, France (7622): visibility: 18.05.2017 11:00:00 - 24.05.2017 11:00:00 (CEST)Auch, France (7622): Ensoleillement: 18.05.2017 11:00:00 - 24.05.2017 11:00:00 (CEST)Auch, France (7622): Quantités de précipitations: 18.05.2017 11:00:00 - 24.05.2017 11:00:00 (CEST)
Date & Time tt [°C] td [°C] tt 5cm [°C] tt -20cm [°C] tt -100cm [°C] ff [km/h] ff [knt] fx [km/h] fx [knt] dd ppp [hPa] vv [km] sd [min] rr [mm]
24.05.2017 11:00:00 19,1 14,6 20,8 18,4 16,3 7 4 16 8 E 1022,6 19 42 0,0
24.05.2017 10:00:00 16,4 15,3 16,2 18,4 16,3 3 2 6 4 N 1022,9 12 36 0,0
24.05.2017 09:00:00 13,2 13,0 13,0 18,6 16,3 3 2 6 3 SSW 1023,2 0,8 4 0,0
24.05.2017 08:00:00 11,9 11,7 11,7 18,7 16,3 0 0 4 2 N 1023,5 0,5 0 0,0
24.05.2017 07:00:00 11,1 10,8 9,2 18,9 16,3 2 1 4 2 N 1023,3 0,3 0 0,0
24.05.2017 06:00:00 10,0 9,5 6,8 19,1 16,3 0 0 2 1 N 1023,2 1,8 0 0,0
24.05.2017 05:00:00 10,2 9,6 7,0 19,3 16,3 0 0 2 1 N 1023,3 10 0 0,0
24.05.2017 04:00:00 10,7 10,1 7,1 19,5 16,3 0 0 2 1 N 1023,4 11 0 0,0
24.05.2017 03:00:00 11,1 10,5 7,9 19,7 16,2 0 0 3 1 N 1023,7 14 0 0,0
24.05.2017 02:00:00 11,4 10,8 8,5 19,8 16,3 2 1 4 2 SSW 1024,3 12 0 0,0
24.05.2017 01:00:00 12,1 11,2 8,6 20,0 16,2 3 1 4 2 SW 1024,6 13 0 0,0
24.05.2017 00:00:00 13,1 11,8 9,9 20,1 16,2 0 0 3 2 N 1024,6 17 0 0,0
23.05.2017 23:00:00 14,8 13,0 11,4 20,1 16,2 0 0 6 3 N 1024,6 20 0 0,0
23.05.2017 22:00:00 17,1 13,8 15,0 20,1 16,2 4 2 13 7 NE 1023,9 20 0 0,0
23.05.2017 21:00:00 19,0 14,0 18,8 20,0 16,2 10 6 14 8 N 1023,4 20 34 0,0
23.05.2017 20:00:00 20,6 14,0 24,0 19,8 16,2 7 4 13 7 N 1022,9 20 60 0,0
23.05.2017 19:00:00 21,0 13,9 25,0 19,6 16,2 8 5 21 12 N 1022,9 20 56 0,0
23.05.2017 18:00:00 22,0 13,9 27,3 19,3 16,2 6 3 15 8 NNE 1023,1 19 60 0,0
23.05.2017 17:00:00 21,5 12,6 27,8 19,1 16,2 4 2 13 7 SW 1023,6 20 60 0,0
23.05.2017 16:00:00 21,1 13,8 24,0 18,9 16,2 3 1 13 7 SSE 1023,8 20 50 0,0
23.05.2017 15:00:00 19,2 12,0 22,9 18,8 16,2 6 3 15 8 NE 1024,4 19 37 0,0
23.05.2017 14:00:00 17,8 12,0 19,4 18,8 16,2 4 2 14 8 WSW 1025,0 19 0 0,0
23.05.2017 13:00:00 16,2 11,6 17,3 18,9 16,2 6 3 13 7 WSW 1025,4 20 0 0,0
23.05.2017 12:00:00 15,6 11,4 16,2 19,0 16,2 5 3 13 7 W 1025,7 20 0 0,0
23.05.2017 11:00:00 15,1 11,3 15,7 19,1 16,2 8 4 16 8 W 1025,4 20 0 0,0
23.05.2017 10:00:00 14,8 11,0 14,8 19,2 16,2 8 4 17 9 W 1025,2 20 0 0,0
23.05.2017 09:00:00 14,4 11,0 14,4 19,3 16,2 8 4 18 10 WNW 1024,9 20 0 0,0
23.05.2017 08:00:00 14,3 11,3 14,1 19,4 16,1 4 2 9 5 W 1024,4 19 0 0,0
23.05.2017 07:00:00 14,1 11,1 13,9 19,6 16,1 5 3 19 10 W 1024,0 19 0 0,0
23.05.2017 06:00:00 14,1 11,4 13,9 19,7 16,1 11 6 19 11 WSW 1023,5 20 0 0,0
23.05.2017 05:00:00 14,3 11,6 14,2 19,9 16,1 10 5 25 14 W 1023,0 20 0 0,0
23.05.2017 04:00:00 14,5 12,0 14,5 20,0 16,1 12 7 25 13 WNW 1022,6 18 0 0,0
23.05.2017 03:00:00 14,7 12,2 14,6 20,2 16,1 11 6 28 15 W 1022,3 18 0 0,0
23.05.2017 02:00:00 15,2 12,7 15,1 20,3 16,1 10 5 23 12 W 1022,1 17 0 0,0
23.05.2017 01:00:00 15,5 12,8 15,4 20,4 16,1 10 5 20 11 W 1022,5 14 0 0,0
23.05.2017 00:00:00 15,9 12,8 15,7 20,5 16,1 11 6 26 14 WNW 1022,0 18 0 0,0
22.05.2017 23:00:00 16,5 13,4 15,7 20,5 16,1 10 5 18 10 SW 1021,7 16 0 0,0
22.05.2017 22:00:00 17,7 13,6 16,9 20,5 16,1 11 6 29 16 WSW 1020,4 20 0 0,0
22.05.2017 21:00:00 20,7 14,6 20,7 20,4 16,1 11 6 31 17 W 1018,9 20 60 0,0
22.05.2017 20:00:00 22,6 14,4 22,6 20,2 16,1 16 9 31 17 NNW 1018,1 20 7 0,0
22.05.2017 19:00:00 26,0 16,8 28,9 20,0 16,1 18 10 37 20 WNW 1016,5 20 60 0,0
22.05.2017 18:00:00 27,4 16,1 27,2 19,7 16,1 14 7 23 13 W 1015,7 20 34 0,0
22.05.2017 17:00:00 27,7 15,4 27,7 19,4 16,1 12 7 27 15 NW 1016,0 20 45 0,0
22.05.2017 16:00:00 27,2 14,6 29,2 18,9 16,1 14 8 35 19 NW 1016,3 20 60 0,0
22.05.2017 15:00:00 27,1 15,8 32,8 18,6 16,1 5 3 18 10 N 1016,2 20 60 0,0
22.05.2017 14:00:00 26,2 16,4 32,4 18,3 16,1 4 2 14 8 NNE 1016,1 20 60 0,0
22.05.2017 13:00:00 25,2 15,5 30,3 18,1 16,1 5 3 11 6 SSE 1016,0 20 60 0,0
22.05.2017 12:00:00 23,7 16,0 27,0 18,0 16,1 3 1 19 10 SE 1016,0 20 60 0,0
22.05.2017 11:00:00 21,3 14,7 24,2 18,0 16,1 11 6 22 12 SE 1015,9 20 60 0,0
22.05.2017 10:00:00 19,3 14,1 19,9 18,1 16,1 12 6 21 11 SSE 1016,2 20 44 0,0
22.05.2017 09:00:00 17,7 13,8 17,4 18,1 16,1 10 5 22 12 SSE 1015,9 20 11 0,0
22.05.2017 08:00:00 16,3 12,1 14,5 18,2 16,1 3 2 24 13 SSE 1015,6 20 3 0,0
22.05.2017 07:00:00 15,8 10,8 14,7 18,3 16,1 4 2 14 7 SE 1014,5 20 0 0,0
22.05.2017 06:00:00 16,2 8,2 15,1 18,4 16,1 5 3 16 9 SSE 1013,6 20 0 0,0
22.05.2017 05:00:00 16,9 6,4 15,6 18,6 16,1 12 6 22 12 SSE 1013,4 20 0 0,0
22.05.2017 04:00:00 17,5 6,1 15,0 18,7 16,1 9 5 21 11 SE 1013,1 20 0 0,0
22.05.2017 03:00:00 17,4 5,3 15,0 18,8 16,1 5 3 18 10 ESE 1013,6 20 0 0,0
22.05.2017 02:00:00 18,1 5,3 15,5 18,8 16,1 4 2 11 6 S 1013,8 20 0 0,0
22.05.2017 01:00:00 19,4 5,8 16,0 18,9 16,2 5 3 13 7 SSE 1014,5 20 0 0,0
22.05.2017 00:00:00 19,0 6,1 16,1 19,0 16,2 3 2 10 5 SW 1014,8 20 0 0,0
21.05.2017 23:00:00 20,1 5,7 18,5 19,0 16,2 6 4 22 12 SSE 1014,7 20 0 0,0
21.05.2017 22:00:00 21,0 7,2 15,5 18,9 16,2 9 5 22 12 ESE 1014,6 20 0 0,0
21.05.2017 21:00:00 21,5 10,3 17,7 18,8 16,2 3 1 10 5 E 1015,1 20 1 0,0
21.05.2017 20:00:00 23,9 10,6 24,0 18,6 16,2 5 3 18 10 ENE 1015,3 20 49 0,0
21.05.2017 19:00:00 24,9 10,0 25,6 18,3 16,2 8 4 21 11 E 1015,5 20 53 0,0
21.05.2017 18:00:00 25,5 9,7 29,2 17,9 16,2 10 5 22 12 E 1016,2 20 60 0,0
21.05.2017 17:00:00 25,2 9,5 27,7 17,6 16,2 10 5 30 16 E 1016,8 20 60 0,0
21.05.2017 16:00:00 24,0 8,8 26,7 17,3 16,2 9 5 27 14 E 1017,8 20 52 0,0
21.05.2017 15:00:00 23,8 9,0 27,3 17,0 16,2 11 6 24 13 ESE 1018,7 20 60 0,0
21.05.2017 14:00:00 22,4 9,2 25,5 16,8 16,2 12 7 30 16 E 1019,5 20 60 0,0
21.05.2017 13:00:00 21,2 9,1 24,6 16,5 16,2 11 6 30 16 ESE 1020,4 20 60 0,0
21.05.2017 12:00:00 19,9 8,2 23,4 16,5 16,2 14 8 25 13 ESE 1021,3 20 60 0,0
21.05.2017 11:00:00 18,8 8,7 21,1 16,5 16,2 12 7 23 12 E 1021,7 20 60 0,0
21.05.2017 10:00:00 16,9 10,3 17,2 16,6 16,2 11 6 23 12 ESE 1022,4 20 60 0,0
21.05.2017 09:00:00 14,1 10,9 11,1 16,8 16,2 5 3 13 7 SE 1022,9 20 60 0,0
21.05.2017 08:00:00 8,8 8,7 4,7 16,9 16,2 0 0 2 1 N 1023,5 20 60 0,0
21.05.2017 07:00:00 5,7 5,3 3,0 17,1 16,2 0 0 0 0 N 1023,4 17 10 0,0
21.05.2017 06:00:00 5,9 5,5 2,8 17,3 16,2 0 0 0 0 N 1023,6 20 0 0,2
21.05.2017 05:00:00 6,0 5,6 2,9 17,4 16,2 0 0 0 0 N 1024,0 20 0 0,0
21.05.2017 04:00:00 6,5 5,9 3,2 17,7 16,2 0 0 0 0 N 1024,4 20 0 0,0
21.05.2017 03:00:00 6,8 6,2 3,2 17,8 16,2 0 0 4 2 N 1025,0 19 0 0,0
21.05.2017 02:00:00 7,3 6,6 3,8 17,9 16,2 0 0 6 3 N 1025,5 20 0 0,0
21.05.2017 01:00:00 8,2 7,3 4,5 18,0 16,2 0 0 3 1 N 1026,1 20 0 0,0
21.05.2017 00:00:00 8,9 7,8 5,6 18,1 16,2 2 1 6 4 SSW 1026,2 20 0 0,0
20.05.2017 23:00:00 10,4 8,7 6,3 18,2 16,2 0 0 3 1 N 1026,3 20 0 0,0
20.05.2017 22:00:00 12,9 9,2 8,1 18,2 16,2 0 0 3 2 N 1026,0 20 0 0,0
20.05.2017 21:00:00 17,7 7,7 15,3 18,0 16,2 2 1 12 6 W 1025,4 20 38 0,0
20.05.2017 20:00:00 18,6 7,4 20,5 17,9 16,2 9 5 21 12 NW 1025,1 20 60 0,0
20.05.2017 19:00:00 19,2 7,6 21,3 17,8 16,3 9 5 26 14 NW 1025,0 20 54 0,0
20.05.2017 18:00:00 19,2 7,0 21,8 17,5 16,3 11 6 26 14 NW 1025,0 20 49 0,0
20.05.2017 17:00:00 19,5 7,2 21,2 17,3 16,3 13 7 38 20 W 1025,1 20 51 0,0
20.05.2017 16:00:00 18,5 7,3 20,5 17,1 16,3 18 10 38 20 W 1025,2 20 50 0,0
20.05.2017 15:00:00 18,4 8,4 19,5 16,9 16,3 16 9 32 17 W 1025,1 20 39 0,0
20.05.2017 14:00:00 17,3 8,2 18,2 16,7 16,3 19 10 36 19 WNW 1025,1 20 30 0,0
20.05.2017 13:00:00 16,8 8,2 17,8 16,6 16,3 19 11 32 18 W 1025,2 20 26 0,0
20.05.2017 12:00:00 16,2 8,7 17,6 16,6 16,3 18 10 40 21 WNW 1025,0 19 42 0,0
20.05.2017 11:00:00 15,2 10,2 14,5 16,7 16,3 18 10 32 17 W 1024,7 20 28 0,0
20.05.2017 10:00:00 14,1 9,3 11,7 16,8 16,3 9 5 23 12 WSW 1024,6 20 20 0,0
20.05.2017 09:00:00 10,5 8,3 9,3 16,9 16,3 8 4 12 7 S 1024,7 20 0 0,0
20.05.2017 08:00:00 8,5 7,0 7,1 17,1 16,3 9 5 13 7 S 1024,3 20 7 0,0
20.05.2017 07:00:00 6,6 6,2 4,9 17,2 16,3 8 5 11 6 S 1023,9 20 8 0,0
20.05.2017 06:00:00 6,4 5,7 5,4 17,4 16,3 9 5 11 6 SSW 1023,7 20 0 0,0
20.05.2017 05:00:00 6,7 5,6 5,5 17,5 16,3 9 5 11 6 SSW 1023,7 20 0 0,0
20.05.2017 04:00:00 7,7 6,2 5,7 17,7 16,3 6 4 10 6 S 1023,6 20 0 0,0
20.05.2017 03:00:00 9,7 7,0 6,7 17,9 16,3 4 2 16 9 WSW 1023,6 20 0 0,0
20.05.2017 02:00:00 9,5 6,9 5,8 18,0 16,3 5 3 14 8 WSW 1023,8 20 0 0,0
20.05.2017 01:00:00 9,9 7,1 6,4 18,1 16,3 8 5 14 7 SW 1023,9 20 0 0,0
20.05.2017 00:00:00 9,8 6,9 7,0 18,2 16,3 6 3 13 7 SW 1024,0 20 0 0,0
19.05.2017 23:00:00 9,7 7,1 7,0 18,3 16,3 7 4 10 5 SSW 1024,1 20 0 0,0
19.05.2017 22:00:00 11,7 7,8 8,3 18,3 16,3 3 2 13 7 SW 1023,3 20 0 0,0
19.05.2017 21:00:00 13,6 7,8 12,9 18,3 16,3 9 5 27 14 W 1022,7 20 37 0,0
19.05.2017 20:00:00 14,5 8,0 15,2 18,2 16,3 15 8 36 19 W 1022,3 20 52 0,0
19.05.2017 19:00:00 15,1 6,9 15,1 18,0 16,3 21 11 45 25 W 1021,9 20 45 0,0
19.05.2017 18:00:00 16,0 9,0 16,6 17,9 16,3 18 10 40 21 W 1021,4 20 43 0,0
19.05.2017 17:00:00 15,9 9,6 12,5 17,7 16,3 19 11 34 19 WSW 1021,3 20 42 0,2
19.05.2017 16:00:00 15,3 10,9 11,6 17,5 16,3 9 5 40 22 W 1021,2 20 35 0,4
19.05.2017 15:00:00 16,4 7,6 13,3 17,3 16,3 19 10 39 21 WSW 1020,8 20 44 0,0
19.05.2017 14:00:00 13,6 9,4 12,1 17,1 16,3 14 7 39 21 W 1021,0 18 21 0,8
19.05.2017 13:00:00 16,0 8,5 16,9 17,1 16,3 16 9 35 19 WSW 1020,6 20 31 0,0
19.05.2017 12:00:00 14,5 7,8 16,4 17,0 16,3 13 7 35 19 W 1021,1 20 42 0,0
19.05.2017 11:00:00 13,7 8,7 14,6 17,0 16,3 14 7 28 15 W 1021,1 20 34 0,0
19.05.2017 10:00:00 13,0 8,5 12,4 17,1 16,3 18 10 32 17 WSW 1021,1 20 43 0,0
19.05.2017 09:00:00 11,2 7,9 11,0 17,2 16,2 9 5 24 13 WSW 1021,1 20 36 0,0
19.05.2017 08:00:00 10,1 8,0 7,5 17,4 16,3 9 5 16 9 WSW 1020,8 20 49 0,0
19.05.2017 07:00:00 8,7 7,3 7,4 17,5 16,2 5 3 14 8 WSW 1020,1 20 0 0,0
19.05.2017 06:00:00 8,9 7,7 7,1 17,7 16,2 7 4 15 8 WSW 1019,8 20 0 0,0
19.05.2017 05:00:00 9,0 7,9 7,4 17,9 16,3 6 3 16 8 SW 1019,7 20 0 0,0
19.05.2017 04:00:00 9,9 8,7 8,8 18,0 16,2 9 5 16 9 WSW 1019,7 20 0 0,0
19.05.2017 03:00:00 9,4 8,5 7,2 18,1 16,2 6 3 10 5 SSW 1019,8 20 0 0,0
19.05.2017 02:00:00 8,6 7,8 6,5 18,3 16,2 7 4 11 6 SW 1020,1 20 0 0,0
19.05.2017 01:00:00 9,0 8,2 7,9 18,4 16,2 3 2 7 4 S 1020,5 20 0 0,0
19.05.2017 00:00:00 8,9 8,0 7,5 18,6 16,2 5 3 15 8 S 1020,8 20 0 0,2
18.05.2017 23:00:00 9,6 8,5 9,1 18,7 16,2 8 4 13 7 S 1021,0 9 0 1,2
18.05.2017 22:00:00 9,7 8,5 9,1 18,9 16,1 10 5 23 12 SSW 1020,7 17 0 1,1
18.05.2017 21:00:00 9,9 8,7 9,2 19,0 16,1 11 6 22 12 SW 1020,0 20 0 1,2
18.05.2017 20:00:00 9,9 8,5 9,4 19,2 16,2 13 7 24 13 SW 1019,6 15 0 1,6
18.05.2017 19:00:00 10,6 9,0 10,2 19,3 16,1 11 6 27 15 W 1019,0 20 0 0,6
18.05.2017 18:00:00 11,0 9,3 10,6 19,5 16,2 12 7 36 20 WNW 1018,2 20 0 0,4
18.05.2017 17:00:00 11,6 10,3 11,4 19,6 16,1 15 8 30 16 WNW 1017,7 20 0 2,0
18.05.2017 16:00:00 11,7 10,4 11,4 19,7 16,1 14 7 35 19 W 1017,4 19 0 2,6
18.05.2017 15:00:00 12,0 10,7 11,7 19,8 16,1 16 9 42 23 WNW 1016,9 20 0 2,6
18.05.2017 14:00:00 12,2 10,9 11,8 19,9 16,1 25 13 49 27 W 1015,5 5 0 2,7
18.05.2017 13:00:00 15,7 14,1 15,0 20,0 16,1 13 7 29 16 WSW 1013,9 20 0 0,2
18.05.2017 12:00:00 15,8 14,5 15,2 20,0 16,1 9 5 23 13 W 1013,6 19 0 2,6
18.05.2017 11:00:00 16,4 15,3 16,0 20,1 16,1 7 4 14 8 WSW 1013,8 2,4 0 0,6

tt = Température de l'air
td = dewpoint
tt 5cm = Température de l'air 5cm
tt -20cm = Température de l'air -20cm
tt -100cm = Température de l'air -100cm
ff = Vitesse du vent
fx = gusts
dd = Direction du vent
ppp = reduced air pressure
vv = visibility
sd = Ensoleillement
rr = Quantités de précipitations

stations d'obs. à proximité